Other Surface Observations
Issued by NWS

Current Version | Previous Version | Text Only | Print | Product List | Glossary On
Versions: 1 2 3 4 5 6 7 8 9 10 11 12 13 14 15 16 17 18 19 20 21 22 23 24 25 26 27 28 29 30 31 32 33 34 35 36 37 38 39 40 41 42 43 44 45 46 47 48 49 50
000
SXUS52 KTAE 191118
OSOTAE
OSOTAE
North Florida/South Alabama/Southwest Georgia Weather Roundup
National Weather Service Tallahassee Florida
600 AM EST WED DEC 19 2018

Note: "fair" indicates few or no clouds below 12,000 feet with no
significant weather and/or obstructions to visibility.

!FLZ017-115-028-034-025-191200
...North Florida...

CITY           SKY/WX    TMP DP  RH WIND       PRES   REMARKS
TALLAHASSEE    CLOUDY    50  48  93 SE3       30.06S
APALACHICOLA   FAIR      50  46  86 NE3       30.05S
PERRY          FAIR      51  47  86 CALM      30.08S
CROSS CITY     FAIR      50  46  87 CALM      30.07S
JACKSONVILLE   MOCLDY    47  45  93 N3        30.09R FOG
$$

!FLZ112-006-005-002-011-191200
...Florida Panhandle...

CITY           SKY/WX    TMP DP  RH WIND       PRES   REMARKS
MARIANNA       FAIR      50  46  86 CALM      30.06R
BONIFAY        NOT AVBL
PANAMA CITY NW FAIR      50  48  93 CALM      30.05R
TYNDALL AFB    FAIR      53  48  84 E6        30.05S
TYND DRONE APT NOT AVBL
DE FUNIAK SPR  NOT AVBL
EGLIN AFB      FAIR      51  44  77 E3        30.03F
DESTIN         FAIR      53  48  83 CALM      30.05S
HURLBURT       FAIR      53  44  72 SE7       30.02F
CRESTVIEW      FAIR      47  44  90 E5        30.06R WCI  45
PENSACOLA      FAIR      51  47  86 N3        30.03F
$$

!ALZ063-066-191200
...South Alabama...

CITY           SKY/WX    TMP DP  RH WIND       PRES   REMARKS
DOTHAN         FAIR      49  41  74 E5        30.09S
OZARK CAIRNS   MOCLDY    47  42  82 N3        30.05S
FT RUCKER HELI FAIR      44  44 100 CALM      30.06R
RUCKER HELI 3  FAIR      47  42  84 CALM      30.05R
RUCKER HELI 2  FAIR      47  43  85 CALM      30.05R
FLORALA APT    FAIR      47  42  83 CALM      30.07S
ANDALUSIA      FAIR      49  43  80 CALM      30.05R
TROY           FAIR      43  42  97 CALM      30.07R
EUFALA         NOT AVBL
MOBILE         FAIR      49  47  93 NE5       30.03S
$$

!GAZ120>161-191200
...Southwest and South Central Georgia...

CITY           SKY/WX    TMP DP  RH WIND       PRES   REMARKS
THOMASVILLE    FAIR      46  45  93 CALM      30.09S
BAINBRIDGE       N/A     50  45  81 NE5       30.07S
MOODY AFB      FAIR      48  47  98 CALM      30.07F
VALDOSTA       FAIR      48  44  86 E3        30.07F
MOULTRIE       FAIR      46  43  87 NE3       30.09R
BLAKELY        FAIR      46  41  81 CALM      30.08F
ALBANY         FAIR      48  42  80 NE3       30.10R
TIFTON         FAIR     N/A N/A N/A SE3       30.10
FITZGERALD     FAIR      47  47 100 CALM      30.12R
CORDELE        FAIR      47  45  91 SE5       30.11R
AMERICUS       FAIR      50  41  71 CALM      30.11R
HOMERVILLE     NOT AVBL
$$

!GMZ750-755-770-775-191200
...Coastal and Buoy Obs...

STATION/POSITION TIME  TEMP    WIND        PRES    VSBY  WAVE
                       AIR SEA DIR/SP/G                  HT/PER
                 (UTC) (F)     (DEG/KT/KT) (MB)    (MI)  (FT/S)
KEATON BEACH     1100   51      60/  4/  6 1018.2R
CEDAR KEY        1100   56      80/ 10/ 12 1018.4R
C TOWER          1100   59      60/ 10/ 11 1018.0R
APALACHICOLA BUO NOT AVBL
PANAMA CITY BUOY NOT AVBL
MOBILE BUOY      1100           90/ 10/ 14 1016.5
ORANGE BCH AL BU 1100                      1016.5
$$



USA.gov is the U.S. government's official web portal to all federal, state and local government web resources and services.